"Pseudo-MPEC" for ZTF10CD

Created 2026 Mar 15 15:35:21 UT using Find_Orb

Click here for an explanation of pseudo-MPECs

 
 Astrometry: 
     ZTF10CD*0C2026 03 09.38549912 55 00.215-03 09 35.89   ~39EK 16.25iUNEOCPI41
     ZTF10CD 0C2026 03 09.38584712 55 03.550-03 10 21.22   ~39EK 16.25iUNEOCPI41
     ZTF10CD 0C2026 03 09.42898013 02 08.581-04 47 26.55   ~39EK 16.47RUNEOCPI41
     ZTF10CD 0C2026 03 09.42932813 02 12.015-04 48 13.58   ~39EK 16.47RUNEOCPI41
     ZTF10CD 0C2026 03 09.44587013 04 59.113-05 26 01.60   ~39IZx18.54rUNEOCPI41
     ZTF10CD 0C2026 03 09.44621813 05 01.622-05 26 36.42   ~39IZx18.54rUNEOCPI41

Station data:
(I41) Palomar Mountain--ZTF  (N33.357336 W116.859780)  US/California.
   Observers B. T. Bolin, Z. T. F. Collaboration. Measurers B. T. Bolin,
   Z.-Y. Lin, F. J. Masci. 1.2-m f/2.4 Schmidt.

Orbital elements:  ZTF10CD
   Perigee 2026 Mar 9.683224 +/- 0.961 TT = 16:23:50.5 (JD 2461109.183224)
Epoch 2026 Mar  9.0 TT = JDT 2461108.5                           AutoNEOCP
q629379.2173 +/- 4.05e+6            (J2000 equator)
H   27.33 G 0.15                    Peri.  202.268624 +/- 60
                                    Node    10.402400 +/- 2.7
e  98.16744389 +/- 652              Incl.   40.574807 +/- 35
4 of 6 observations 2026 Mar. 9 (63.1 min); mean residual 0".66
Residuals in arcseconds: 
260309 I41  .97+  1.2-    260309 I41  .84+  .60-    260309 I41( 9.2+  3.5-)   
260309 I41  .33+  .03-    260309 I41  .13+  .15-    260309 I41( 6.0-  9.5+)   

Ephemerides (geocentric):
Date (UTC) HH   RA             Dec           delta  r     elong  mag " sig PA
---- --------  ------------   ------------  ------ ------ -----  --- --------
2026 03 15 16  19 54 56.353   -39 06 30.83  .02744 .98245  63.1 24.0 177d  11
2026 03 15 17  19 55 15.176   -39 05 44.27  .02762 .98237  63.1 24.0 177d  11
2026 03 15 18  19 55 33.751   -39 04 58.12  .02781 .98229  63.1 24.0 177d  11
2026 03 15 19  19 55 52.082   -39 04 12.36  .02800 .98221  63.1 24.0 177d  11
2026 03 15 20  19 56 10.175   -39 03 26.98  .02818 .98214  63.0 24.1 177d  11
2026 03 15 21  19 56 28.034   -39 02 41.99  .02837 .98206  63.0 24.1 177d  11
2026 03 15 22  19 56 45.664   -39 01 57.38  .02855 .98198  63.0 24.1 177d  11
2026 03 15 23  19 57 03.069   -39 01 13.14  .02874 .98191  63.0 24.1 177d  11
2026 03 16 00  19 57 20.255   -39 00 29.27  .02893 .98183  63.0 24.1 177d  11
2026 03 16 01  19 57 37.225   -38 59 45.77  .02911 .98175  62.9 24.1 177d  11
2026 03 16 02  19 57 53.983   -38 59 02.63  .02930 .98168  62.9 24.1 177d  11
2026 03 16 03  19 58 10.534   -38 58 19.84  .02948 .98160  62.9 24.2 177d  11
2026 03 16 04  19 58 26.881   -38 57 37.41  .02967 .98153  62.9 24.2 177d  11
2026 03 16 05  19 58 43.030   -38 56 55.33  .02986 .98145  62.9 24.2 177d  10
2026 03 16 06  19 58 58.982   -38 56 13.59  .03004 .98138  62.9 24.2 177d  10
2026 03 16 07  19 59 14.743   -38 55 32.18  .03023 .98130  62.9 24.2 177d  10
2026 03 16 08  19 59 30.316   -38 54 51.12  .03041 .98123  62.8 24.2 177d  10
2026 03 16 09  19 59 45.704   -38 54 10.38  .03060 .98115  62.8 24.2 177d  10
2026 03 16 10  20 00 00.910   -38 53 29.98  .03079 .98108  62.8 24.3 177d  10
2026 03 16 11  20 00 15.939   -38 52 49.89  .03097 .98100  62.8 24.3 177d  10
2026 03 16 12  20 00 30.793   -38 52 10.13  .03116 .98093  62.8 24.3 177d  10
2026 03 16 13  20 00 45.476   -38 51 30.68  .03134 .98086  62.8 24.3 177d  10
2026 03 16 14  20 00 59.991   -38 50 51.54  .03153 .98078  62.8 24.3 177d  10
2026 03 16 15  20 01 14.340   -38 50 12.71  .03172 .98071  62.8 24.3 177d  10
2026 03 16 16  20 01 28.528   -38 49 34.18  .03190 .98064  62.8 24.3 177d  10
2026 03 16 17  20 01 42.556   -38 48 55.95  .03209 .98056  62.8 24.3 177d  10
2026 03 16 18  20 01 56.427   -38 48 18.02  .03228 .98049  62.8 24.4 177d  10
2026 03 16 19  20 02 10.145   -38 47 40.38  .03246 .98042  62.7 24.4 177d  10
2026 03 16 20  20 02 23.713   -38 47 03.03  .03265 .98035  62.7 24.4 177d  10
2026 03 16 21  20 02 37.132   -38 46 25.97  .03284 .98028  62.7 24.4 177d  10
2026 03 16 22  20 02 50.405   -38 45 49.18  .03302 .98021  62.7 24.4 177d  10
2026 03 16 23  20 03 03.535   -38 45 12.68  .03321 .98013  62.7 24.4 177d  10
2026 03 17 00  20 03 16.525   -38 44 36.44  .03339 .98006  62.7 24.4 177d   9
2026 03 17 01  20 03 29.376   -38 44 00.48  .03358 .97999  62.7 24.4 177d   9
2026 03 17 02  20 03 42.092   -38 43 24.79  .03377 .97992  62.7 24.5 177d   9
2026 03 17 03  20 03 54.674   -38 42 49.36  .03395 .97985  62.7 24.5 177d   9
2026 03 17 04  20 04 07.125   -38 42 14.20  .03414 .97978  62.7 24.5 177d   9
2026 03 17 05  20 04 19.446   -38 41 39.29  .03433 .97971  62.7 24.5 177d   9
2026 03 17 06  20 04 31.641   -38 41 04.64  .03451 .97964  62.7 24.5 177d   9
2026 03 17 07  20 04 43.712   -38 40 30.23  .03470 .97957  62.7 24.5 177d   9
2026 03 17 08  20 04 55.659   -38 39 56.08  .03488 .97950  62.7 24.5 177d   9
2026 03 17 09  20 05 07.486   -38 39 22.17  .03507 .97944  62.7 24.5 177d   9
2026 03 17 10  20 05 19.195   -38 38 48.50  .03526 .97937  62.7 24.5 177d   9
2026 03 17 11  20 05 30.786   -38 38 15.08  .03544 .97930  62.7 24.6 177d   9
2026 03 17 12  20 05 42.263   -38 37 41.89  .03563 .97923  62.7 24.6 177d   9
2026 03 17 13  20 05 53.627   -38 37 08.93  .03582 .97916  62.7 24.6 177d   9
2026 03 17 14  20 06 04.880   -38 36 36.20  .03600 .97910  62.7 24.6 177d   9
2026 03 17 15  20 06 16.024   -38 36 03.70  .03619 .97903  62.7 24.6 177d   9